Tracking 29606 objects as of 18-Sep-2024
HD Live streaming from Space Station
objects crossing your sky now

COSMOS 1934

Track COSMOS 1934 now!
10-day predictions
COSMOS 1934 is classified as:


NORAD ID: 18985
Int'l Code: 1988-023A
Perigee: 951.8 km
Apogee: 1,014.5 km
Inclination: 83.0 °
Period: 104.6 minutes
Semi major axis: 7354 km
RCS: 2.9931 m2 (large)
Launch date: March 22, 1988
Source: Commonwealth of Independent States (former USSR) (CIS)
Launch site: PLESETSK MISSILE AND SPACE COMPLEX (PKMTR)
Your satellite tracking list
Your tracking list is empty




NASA's NSSDC Master Catalog

Two Line Element Set (TLE):
1 18985U 88023A   24262.13414314  .00000115  00000-0  10067-3 0  9993
2 18985  82.9516 267.3580 0042603 110.3646 250.2096 13.76589992708627
Source of the keplerian elements: AFSPC